Location: Scottsville
(37.8064°N, 78.4920°W)
Time: 12:05:31
(UTC+00:00)

ACS3 Solar Sail - Visible Passes

Search period start: 23 June 2024 00:00
Search period end: 03 July 2024 00:00
Orbit: 992 x 1024 km, 97.4° (Epoch: 23 June)

Date Brightness Start Highest point End Pass type
(mag) Time Alt. Az. Time Alt. Az. Time Alt. Az.
23 Jun 4.9 02:31:40 27° SSE 02:35:12 68° ENE 02:41:22 10° N visible
23 Jun 6.8 04:17:01 13° WSW 04:19:46 17° W 04:23:36 10° NW visible
24 Jun 6.4 01:21:53 10° ESE 01:26:04 19° ENE 01:30:16 10° NNE visible
24 Jun 5.1 03:06:29 30° S 03:09:35 64° W 03:15:46 10° NNW visible
25 Jun 5.6 01:55:56 17° SE 02:00:06 36° ENE 02:05:41 10° N visible
25 Jun 6.1 03:41:17 22° SW 03:44:10 32° W 03:49:41 10° NNW visible
26 Jun 4.9 02:30:44 27° SSE 02:34:19 70° ENE 02:40:31 10° N visible
26 Jun 6.9 04:16:04 12° WSW 04:18:56 16° W 04:22:37 10° NW visible
27 Jun 6.4 01:20:55 10° ESE 01:25:12 20° ENE 01:29:29 10° NNE visible
27 Jun 5.1 03:05:31 29° S 03:08:44 62° W 03:14:53 10° NNW visible
28 Jun 5.6 01:54:58 17° SE 01:59:14 37° ENE 02:04:52 10° N visible
28 Jun 6.1 03:40:19 21° SW 03:43:19 31° W 03:48:46 10° NNW visible
29 Jun 4.8 02:29:47 26° SSE 02:33:28 72° ENE 02:39:39 10° N visible
29 Jun 6.9 04:15:07 11° WSW 04:18:06 15° W 04:21:37 10° NW visible
30 Jun 6.3 01:19:56 10° ESE 01:24:18 20° ENE 01:28:41 10° NNE visible
30 Jun 5.2 03:04:35 28° S 03:07:53 60° W 03:14:02 10° NNW visible
01 Jul 5.5 01:54:02 17° SE 01:58:21 39° ENE 02:04:01 10° N visible
01 Jul 6.2 03:39:24 20° SW 03:42:28 30° W 03:47:52 10° NNW visible
02 Jul 4.8 02:28:51 26° SSE 02:32:36 74° ENE 02:38:48 10° N visible
02 Jul 7.0 04:14:11 11° WSW 04:17:17 15° W 04:20:37 10° NW visible
